Home > Weather > 's-Hertogenbosch > Past weeks

Flag for Netherlands Weather for the Past 2 Weeks in 's-Hertogenbosch, Netherlands

Now
48 °F

Drizzle. Broken clouds.


Feels Like: 42 °F
Forecast: 39 / 51 °F
Wind: 15 mph from South

Location: Volkel

Current Time: Apr 29, 2016 at 6:10:18 PM

Latest Report: Apr 29, 2016 at 5:25 PM


Visibility: N/A

Pressure: 29.92 "Hg

Humidity: 82%

Dew Point: 43 °F

Location of 's-HertogenboschLocation

Historic Weather in 's-Hertogenbosch — Graph

°F

's-Hertogenbosch Temperature Yesterday

Maximum temperature yesterday: 48 °F (at 10:58 AM)
Minimum temperature yesterday: 34 °F (at 5:55 AM)
Average temperature yesterday: 42 °F

High & Low Weather Summary for the Past Weeks

 TemperatureHumidityPressure
High64 °F (Apr 21, 3:57 PM)100% (Apr 15, 4:55 AM)30.48 "Hg (Apr 15, 4:55 AM)
Low30 °F (Apr 18, 6:55 AM)37% (Apr 14, 6:25 PM)29.42 "Hg (Apr 16, 4:55 AM)
Average46 °F74%29.92 "Hg
* Reported Apr 14 4:25 PM — Apr 29 4:55 PM, 's-Hertogenbosch, Weather by CustomWeather, © 2016

Note: Actual official high and low records may vary slightly from our data, if they occured in-between our weather recording intervals... More about our weather records

Advertising

's-Hertogenbosch Weather History for the Previous 24 Hours

Scroll right to see more
 ConditionsComfort  
Time TempWeatherWind HumidityBarometerVisibility
4:55 PM
Fri, Apr 29
50 °FPartly sunny.15 mph71%29.92 "HgN/A
4:25 PM50 °FBroken clouds.17 mph71%29.92 "HgN/A
3:55 PM50 °FDrizzle. Broken clouds.17 mph71%29.92 "HgN/A
3:25 PM50 °FCloudy.15 mph67%29.92 "HgN/A
2:55 PM50 °FBroken clouds.16 mph67%29.92 "HgN/A
2:25 PM50 °FPartly sunny.15 mph67%29.92 "HgN/A
1:55 PM48 °FLight rain. Partly sunny.17 mph71%29.89 "HgN/A
1:25 PM50 °FBroken clouds.17 mph71%29.89 "HgN/A
1:01 PM48 °FOvercast.15 mph76%29.89 "HgN/A
12:55 PM48 °FOvercast.15 mph76%29.89 "HgN/A
12:25 PM46 °FPartly sunny.14 mph82%29.92 "HgN/A
12:01 PM46 °FLight rain. Partly sunny.16 mph82%29.92 "HgN/A
12:00 PM46 °FDrizzle. Broken clouds.16 mph82%29.92 "HgN/A
11:25 AM46 °FBroken clouds.16 mph87%29.89 "HgN/A
10:55 AM45 °FLight rain. Partly sunny.16 mph87%29.89 "HgN/A
10:25 AM46 °FDrizzle. Mostly cloudy.18 mph82%29.89 "HgN/A
9:55 AM45 °FDrizzle. Mostly cloudy.18 mph81%29.89 "HgN/A
9:25 AM46 °FOvercast.16 mph71%29.86 "HgN/A
8:59 AM45 °FMostly cloudy.18 mph76%29.86 "HgN/A
8:25 AM45 °FPartly sunny.14 mph76%29.86 "HgN/A
7:55 AM45 °FMostly cloudy.13 mph71%29.86 "HgN/A
7:25 AM43 °FPartly sunny.13 mph71%29.86 "HgN/A
6:55 AM41 °FPassing clouds.13 mph76%29.86 "HgN/A
6:25 AM39 °FPassing clouds.14 mph81%29.86 "HgN/A
5:55 AM41 °FPassing clouds.14 mph76%29.86 "HgN/A
5:25 AM39 °FPassing clouds.12 mph81%29.86 "HgN/A
4:25 AM41 °FOvercast.10 mph76%29.89 "HgN/A
3:55 AM41 °FMostly cloudy.10 mph76%29.89 "HgN/A
3:25 AM41 °FOvercast.9 mph76%29.89 "HgN/A
2:55 AM41 °FMostly cloudy.9 mph76%29.89 "HgN/A
2:25 AM41 °FOvercast.9 mph81%29.92 "HgN/A
1:55 AM39 °FMostly cloudy.9 mph87%29.92 "HgN/A
1:25 AM39 °FMostly cloudy.9 mph93%29.92 "HgN/A
12:55 AM39 °FPassing clouds.8 mph87%29.92 "HgN/A
12:25 AM39 °FChilly.7 mph87%29.92 "HgN/A
11:55 PM
Thu, Apr 28
39 °FChilly.7 mph87%29.95 "HgN/A
10:55 PM39 °FPassing clouds.7 mph87%29.95 "HgN/A
10:25 PM39 °FChilly.6 mph87%29.95 "HgN/A
9:55 PM39 °FPassing clouds.2 mph93%29.95 "HgN/A
9:25 PM39 °FChilly.2 mph87%29.95 "HgN/A
8:55 PM41 °FQuite cool.2 mph87%29.95 "HgN/A
8:25 PM43 °FScattered clouds.5 mph81%29.95 "HgN/A
7:55 PM43 °FQuite cool.5 mph81%29.95 "HgN/A
7:25 PM46 °FScattered clouds.7 mph66%29.95 "HgN/A
6:55 PM46 °FPartly sunny.7 mph71%29.95 "HgN/A
6:25 PM45 °FDrizzle. Broken clouds.9 mph76%29.95 "HgN/A
Weather by CustomWeather, © 2016

See weather overviewHow to use our weather pages